Location: 相模原市立博物館
(35.5593°N, 139.3931°E)
Time: 14:53:02
(UTC+09:00)

POLYITAN 1 - Visible Passes

Search period start: 10 August 2022 00:00
Search period end: 20 August 2022 00:00
Orbit: 586 x 604 km, 98.0° (Epoch: 09 August)

Date Brightness Start Highest point End Pass type
(mag) Time Alt. Az. Time Alt. Az. Time Alt. Az.
10 Aug ? 00:52:49 10° NE 00:53:33 14° NE 00:53:33 14° NE visible
10 Aug ? 02:28:52 10° NNW 02:30:11 16° NW 02:30:11 16° NW visible
11 Aug ? 01:02:20 10° NNE 01:03:18 16° NE 01:03:18 16° NE visible
11 Aug ? 02:39:04 10° NNW 02:39:57 13° NW 02:39:57 13° NW visible
12 Aug ? 01:11:54 10° NNE 01:13:03 18° NNE 01:13:03 18° NNE visible
12 Aug ? 02:49:35 10° NW 02:49:41 10° NW 02:49:41 10° NW visible
13 Aug ? 01:21:32 10° NNE 01:22:48 19° NNE 01:22:48 19° NNE visible
14 Aug ? 01:31:13 10° NNE 01:32:32 20° NNE 01:32:32 20° NNE visible
15 Aug ? 01:40:56 10° N 01:42:16 20° N 01:42:16 20° N visible
16 Aug ? 01:50:42 10° N 01:52:00 19° N 01:52:00 19° N visible
17 Aug ? 02:00:31 10° N 02:01:43 18° NNW 02:01:43 18° NNW visible
18 Aug ? 02:10:24 10° N 02:11:26 16° NNW 02:11:26 16° NNW visible
19 Aug ? 02:20:20 10° NNW 02:21:09 14° NNW 02:21:09 14° NNW visible
